TimeCDT,TemperatureF,Dew PointF,Humidity,Sea Level PressureIn,VisibilityMPH,Wind Direction,Wind SpeedMPH,Gust SpeedMPH,PrecipitationIn,Events,Conditions,WindDirDegrees,DateUTC
12:53 AM,69.1,37.0,31,30.14,10.0,Calm,Calm,-,N/A,,Clear,0,2011-10-03 05:53:00
1:53 AM,68.0,45.0,43,30.14,10.0,South,6.9,-,N/A,,Clear,170,2011-10-03 06:53:00
2:53 AM,64.9,46.0,50,30.14,10.0,Calm,Calm,-,N/A,,Clear,0,2011-10-03 07:53:00
3:53 AM,63.0,46.9,56,30.14,10.0,Calm,Calm,-,N/A,,Clear,0,2011-10-03 08:53:00
4:53 AM,62.1,48.0,60,30.15,10.0,Calm,Calm,-,N/A,,Clear,0,2011-10-03 09:53:00
5:53 AM,62.1,48.9,62,30.15,10.0,Calm,Calm,-,N/A,,Clear,0,2011-10-03 10:53:00
6:53 AM,59.0,46.9,64,30.18,10.0,Calm,Calm,-,N/A,,Clear,0,2011-10-03 11:53:00
7:53 AM,60.1,48.9,67,30.20,10.0,Calm,Calm,-,N/A,,Clear,0,2011-10-03 12:53:00
8:53 AM,66.0,51.1,59,30.21,10.0,Calm,Calm,-,N/A,,Clear,0,2011-10-03 13:53:00
9:53 AM,72.0,53.1,51,30.22,10.0,South,8.1,-,N/A,,Clear,190,2011-10-03 14:53:00
10:53 AM,77.0,48.9,37,30.22,10.0,SSW,6.9,-,N/A,,Clear,200,2011-10-03 15:53:00
11:53 AM,78.1,46.0,32,30.21,10.0,Variable,4.6,-,N/A,,Clear,0,2011-10-03 16:53:00
12:53 PM,82.0,45.0,27,30.19,10.0,Variable,5.8,-,N/A,,Clear,0,2011-10-03 17:53:00
1:53 PM,84.0,42.1,23,30.16,10.0,South,8.1,-,N/A,,Clear,180,2011-10-03 18:53:00
2:53 PM,86.0,42.1,21,30.13,10.0,SE,6.9,-,N/A,,Clear,130,2011-10-03 19:53:00
3:53 PM,86.0,37.9,18,30.12,10.0,SSE,9.2,-,N/A,,Clear,160,2011-10-03 20:53:00
4:53 PM,86.0,39.0,19,30.12,10.0,South,10.4,-,N/A,,Clear,180,2011-10-03 21:53:00
5:53 PM,84.9,37.9,19,30.12,10.0,SE,8.1,-,N/A,,Clear,130,2011-10-03 22:53:00
6:53 PM,82.0,39.0,22,30.12,10.0,SSE,5.8,-,N/A,,Clear,150,2011-10-03 23:53:00
7:53 PM,78.1,43.0,29,30.13,10.0,SE,3.5,-,N/A,,Clear,130,2011-10-04 00:53:00
8:53 PM,73.0,42.1,33,30.14,10.0,Calm,Calm,-,N/A,,Clear,0,2011-10-04 01:53:00
9:53 PM,72.0,42.1,34,30.15,10.0,Calm,Calm,-,N/A,,Clear,0,2011-10-04 02:53:00
10:53 PM,66.0,41.0,40,30.16,10.0,Calm,Calm,-,N/A,,Clear,0,2011-10-04 03:53:00
11:53 PM,64.9,42.1,43,30.16,10.0,Calm,Calm,-,N/A,,Clear,0,2011-10-04 04:53:00